Regional Weather Roundup
Issued by NWS Portland, ME

Current Version | Previous Version | Text Only | Print | Product List | Glossary Off
Versions: 1 2 3 4 5 6 7 8 9 10 11 12 13 14 15 16 17 18 19 20 21 22 23 24 25 26 27 28 29 30 31 32 33 34 35 36 37 38 39 40 41 42 43 44 45 46 47 48 49 50

000
ASUS41 KGYX 231905
RWRGYX
WEATHER ROUNDUP FOR MAINE AND NEW HAMPSHIRE
NATIONAL WEATHER SERVICE GRAY ME
300 PM EDT WED JUL 23 2014

MEZ002-005-006-010-012-015-018-020-021-024-026-027-029-232000-
MAINE

CITY           SKY/WX    TMP DP  RH WIND       PRES   REMARKS
PORTLAND       PTSUNNY   85  71  63 S10       29.73F HX  90
SANFORD        MOSUNNY   91  70  49 SW10G16   29.75F HX  97
BAR HARBOR     SUNNY     75  70  83 SW12      29.75S
WISCASSET      SUNNY     85  71  63 S10       29.75F HX  90
ROCKLAND       SUNNY     81  72  74 S12G17    29.74F
FRYEBURG       MOSUNNY   90  68  48 SW13G22   29.73F HX  94
LEWISTONAUBURN MOSUNNY   90  72  55 SW12G20   29.73F HX  96
AUGUSTA        MOSUNNY   85  72  65 S9G17     29.73F HX  91
WATERVILLE     MOSUNNY   86  72  62 S7        29.67F HX  92
BANGOR         MOSUNNY   86  71  60 S12       29.71F HX  91
GREENVILLE       N/A     68  65  90 VRB6G26   29.76R
MILLINOCKET    MOSUNNY   91  67  44 VRB5      29.69F HX  94
HOULTON        MOSUNNY   87  66  49 SW14G24   29.66F
PRESQUE ISLE   CLOUDY    81  64  57 W13       29.67S
FRENCHVILLE    LGT RAIN  72  67  84 SW8       29.67R
CARIBOU        CLOUDY    77  70  79 W9        29.66S
$$

NHZ002-005-008-009-011-012-014-232000-
NEW HAMPSHIRE

CITY           SKY/WX    TMP DP  RH WIND       PRES   REMARKS
PORTSMOUTH     MOSUNNY   91  71  51 SW8G17    29.74F HX  97
ROCHESTER      MOSUNNY   90  70  51 VRB7      29.75F HX  95
NASHUA         MOSUNNY   92  67  43 SW9G18    29.78F HX  95
MANCHESTER     MOSUNNY   90  68  48 SW12G20   29.75F HX  94
CONCORD        PTSUNNY   90  68  48 SW13      29.76F HX  94
LACONIA        MOSUNNY   90  68  48 SW12G24   29.75S HX  93
PLYMOUTH       PTSUNNY   88  67  50 W5G18     29.74F HX  90
BERLIN         CLOUDY    86  67  52 S12G18    29.75F
WHITEFIELD     MOSUNNY   87  67  51 SW12G21   29.74F HX  90
JAFFREY        MOSUNNY   87  69  54 S10G18    29.83F HX  91
LEBANON        PTSUNNY   89  66  46 SW13G22   29.74F HX  91
MT WASHINGTON  FOG       59  59 100 W33         N/A  VSB 1/2
$$

VTZ005-007-008-232000-
VERMONT

CITY           SKY/WX    TMP DP  RH WIND       PRES   REMARKS
ST JOHNSBURY     N/A     81  67  62 MISG      29.71F
MONTPELIER     PTSUNNY   86  69  56 S6G17     29.79F HX  90
BURLINGTON     CLOUDY    74  70  87 NW10      29.74S THUNDER
$$

MAZ007-012-024-CTZ003-RIZ002-NYZ038-NYZ072-232000-
SOUTHERN NEW ENGLAND AND NY

CITY           SKY/WX    TMP DP  RH WIND       PRES   REMARKS
BOSTON         MOSUNNY   91  69  48 SW17G23   29.78F HX  96
WORCESTER      MOSUNNY   86  68  54 SW14G21   29.85F
NANTUCKET      MOSUNNY   71  67  87 S15       29.91F
PROVIDENCE     MOSUNNY   87  71  58 SW13G22   29.85F HX  93
HARTFORD       PTSUNNY   91  70  49 S17G23    29.79F HX  96
ALBANY         PTSUNNY   89  72  56 S15       29.77F HX  96
NEW YORK CITY  MOSUNNY   88  71  57 S17       29.85F HX  94
$$

ANZ081-ANZ082-ANZ150-NHZ014-MEZ023>029-232000-
COASTAL MARINE OBSERVATIONS

STATION/POSITION TIME  TEMP    WIND        PRES    WAVE
                       AIR SEA DIR/SP/G            HT/PER
                 (UTC) (F)     (DEG/KT/KT) (MB)    (FT/S)
MOUNT DESERT ROC 1900   62                 1008.1F
MATINICUS ROCK   1800          200/ 20/ 20 1007.9F
PORTLAND WX BUOY 1900   68 62  180/ 16/ 17 1007.2F   3/ 8
WELLS            1900   76 64  190/ 18/ 21 1006.7F
ISLE OF SHOALS   1800   78     180/ 22/ 23 1007.9F
JEFFREYS LEDGE   1800      65                N/A     3/ 8
CASHES LEDGE BUO 1900   70 68  VRB 17/ 21  1007.9F   4/ 5
$$

.............KEY..............
   WCI - WIND CHILL
   TC  - TEMPERATURE IN CELSIUS
   VSB - VISIBILITY IN MILES
   HX  - HEAT INDEX
   FAIR- INDICATES FEW OR NO CLOUDS BELOW 12,000 FT, WITH NO
         SIGNIFICANT WEATHER AND/OR OBSTRUCTIONS TO VISIBILITY.





USA.gov is the U.S. government's official web portal to all federal, state and local government web resources and services.